Location: Bishop�s Knoyle
(51.0728°N, 2.1714°W)
Time: 16:19:39
(UTC+00:00)

DELTA 1 DEB - Visible Passes

Search period start: 16 April 2021 00:00
Search period end: 26 April 2021 00:00
Orbit: 580 x 614 km, 98.9° (Epoch: 16 April)

Date Brightness Start Highest point End Pass type
(mag) Time Alt. Az. Time Alt. Az. Time Alt. Az.
16 Apr ? 20:31:48 19° SE 20:34:31 49° ENE 20:38:37 10° N visible
16 Apr ? 22:08:30 16° SW 22:10:20 21° W 22:13:33 10° NW visible
17 Apr ? 20:42:07 21° SE 20:44:45 61° ENE 20:48:57 10° N visible
17 Apr ? 22:18:48 13° WSW 22:20:42 17° W 22:23:30 10° NW visible
18 Apr ? 20:52:25 23° SSE 20:55:00 75° ENE 20:59:15 10° NNW visible
18 Apr ? 22:29:07 11° WSW 22:31:04 14° W 22:33:18 10° WNW visible
19 Apr ? 21:02:44 24° SSE 21:05:14 88° WSW 21:09:31 10° NNW visible
19 Apr ? 22:40:11 10° WSW 22:41:27 11° W 22:42:45 10° WNW visible
20 Apr ? 21:13:02 24° S 21:15:29 71° WSW 21:19:46 10° NNW visible
21 Apr ? 19:47:28 10° ESE 19:50:34 20° ENE 19:53:42 10° N visible
21 Apr ? 21:23:19 23° S 21:25:45 57° WSW 21:29:58 10° NNW visible
22 Apr ? 19:57:19 10° ESE 20:00:43 24° ENE 20:04:09 10° N visible
22 Apr ? 21:33:36 22° SSW 21:36:01 46° W 21:40:09 10° NNW visible
23 Apr ? 20:07:14 10° ESE 20:10:52 28° ENE 20:14:32 10° N visible
23 Apr ? 21:43:54 20° SSW 21:46:18 37° W 21:50:17 10° NNW visible
24 Apr ? 20:17:29 12° SE 20:21:01 34° ENE 20:24:53 10° N visible
24 Apr ? 21:54:09 18° SSW 21:56:35 30° W 22:00:22 10° NW visible
25 Apr ? 20:27:45 13° SE 20:31:10 41° ENE 20:35:13 10° N visible
25 Apr ? 22:04:26 15° SW 22:06:52 25° W 22:10:25 10° NW visible
